Location: Pittsburgh
(40.4410°N, 79.9960°W)
Time: 05:11:58
(UTC-04:00)

ARIANE 6 FM1 Upper Stage - Pass Details

Date: 16 March 2026
Orbit: 525 x 604 km, 62.0° (Epoch: 20 April)

Event Time Altitude Azimuth Distance (km) Brightness Sun altitude
Exits shadow 05:10:34 23° 3° (N) 1,187 4.5 -26.7°
Drops below altitude 10° 05:12:24 10° 20° (NNE) 1,794 5.7 -26.4°
Sets 05:14:43 0° 30° (NNE) 2,679 6.9 -26.0°
